Time,TemperatureF,DewpointF,PressureIn,WindDirection,WindDirectionDegrees,WindSpeedMPH,WindSpeedGustMPH,Humidity,HourlyPrecipIn,Conditions,Clouds,dailyrainin,SoftwareType,DateUTC
2013-12-13 00:02:00,15.9,4.5,30.11,South,186,0.0,0.0,60,0.00,,CLR,0.00,VWS V14.01,2013-12-13 05:02:00,
2013-12-13 00:07:00,15.9,4.5,30.11,SW,215,0.0,0.0,60,0.00,,CLR,0.00,VWS V14.01,2013-12-13 05:07:00,
2013-12-13 00:12:00,15.9,4.5,30.11,SSW,206,0.0,0.0,60,0.00,,CLR,0.00,VWS V14.01,2013-12-13 05:12:00,
2013-12-13 00:17:00,15.9,4.5,30.11,SSW,209,0.0,0.0,60,0.00,,CLR,0.00,VWS V14.01,2013-12-13 05:17:00,
2013-12-13 00:27:00,15.9,4.8,30.11,SW,219,0.0,0.0,61,0.00,,CLR,0.00,VWS V14.01,2013-12-13 05:27:00,
2013-12-13 00:37:00,15.7,4.7,30.10,SSW,212,0.0,0.0,61,0.00,,CLR,0.00,VWS V14.01,2013-12-13 05:37:00,
2013-12-13 00:42:00,15.7,4.7,30.10,SSW,199,0.0,0.0,61,0.00,,CLR,0.00,VWS V14.01,2013-12-13 05:42:00,
2013-12-13 00:47:00,15.6,4.9,30.10,SSW,193,0.0,0.0,62,0.00,,CLR,0.00,VWS V14.01,2013-12-13 05:47:00,
2013-12-13 00:52:00,15.6,4.9,30.10,SSW,196,0.0,0.0,62,0.00,,CLR,0.00,VWS V14.01,2013-12-13 05:52:00,
2013-12-13 00:57:00,15.6,4.9,30.10,SSW,210,0.0,0.0,62,0.00,,CLR,0.00,VWS V14.01,2013-12-13 05:57:00,
2013-12-13 01:02:00,15.4,4.7,30.09,SSW,200,0.0,0.0,62,0.00,,CLR,0.00,VWS V14.01,2013-12-13 06:02:00,
2013-12-13 01:07:00,15.6,4.9,30.09,SW,216,0.0,0.0,62,0.00,,CLR,0.00,VWS V14.01,2013-12-13 06:07:00,
2013-12-13 01:12:00,15.7,5.0,30.09,SSW,203,0.0,0.0,62,0.00,,CLR,0.00,VWS V14.01,2013-12-13 06:12:00,
2013-12-13 01:17:00,15.7,5.0,30.09,SSW,208,0.0,0.0,62,0.00,,CLR,0.00,VWS V14.01,2013-12-13 06:17:00,
2013-12-13 01:22:00,15.9,5.2,30.09,SW,217,0.0,0.0,62,0.00,,CLR,0.00,VWS V14.01,2013-12-13 06:22:00,
2013-12-13 01:28:00,15.9,5.2,30.09,SW,219,0.0,0.0,62,0.00,,CLR,0.00,VWS V14.01,2013-12-13 06:28:00,
2013-12-13 01:37:00,15.9,5.2,30.08,SW,219,0.0,0.0,62,0.00,,CLR,0.00,VWS V14.01,2013-12-13 06:37:00,
2013-12-13 01:43:00,15.9,5.2,30.08,SSW,195,0.0,0.0,62,0.00,,CLR,0.00,VWS V14.01,2013-12-13 06:43:00,
2013-12-13 01:52:00,15.9,5.2,30.08,SSW,210,0.0,0.0,62,0.00,,CLR,0.00,VWS V14.01,2013-12-13 06:52:00,
2013-12-13 01:58:00,15.9,5.2,30.08,SSW,203,0.0,0.0,62,0.00,,CLR,0.00,VWS V14.01,2013-12-13 06:58:00,
2013-12-13 02:03:00,16.1,5.4,30.07,SSW,209,0.0,0.0,62,0.00,,CLR,0.00,VWS V14.01,2013-12-13 07:03:00,
2013-12-13 02:12:00,16.1,5.4,30.07,SSW,193,0.0,0.0,62,0.00,,CLR,0.00,VWS V14.01,2013-12-13 07:12:00,
2013-12-13 02:17:00,16.1,5.4,30.07,SSW,209,0.0,0.0,62,0.00,,CLR,0.00,VWS V14.01,2013-12-13 07:17:00,
2013-12-13 02:22:00,16.1,5.4,30.07,SSW,203,0.0,0.0,62,0.00,,CLR,0.00,VWS V14.01,2013-12-13 07:22:00,
2013-12-13 02:27:00,16.1,5.4,30.07,SSW,205,0.0,0.0,62,0.00,,CLR,0.00,VWS V14.01,2013-12-13 07:27:00,
2013-12-13 02:32:00,16.1,5.4,30.07,South,189,0.0,0.0,62,0.00,,CLR,0.00,VWS V14.01,2013-12-13 07:32:00,
2013-12-13 02:42:00,15.9,5.2,30.07,SSW,202,0.0,0.0,62,0.00,,CLR,0.00,VWS V14.01,2013-12-13 07:42:00,
2013-12-13 02:47:00,15.9,5.2,30.07,SSW,195,0.0,0.0,62,0.00,,CLR,0.00,VWS V14.01,2013-12-13 07:47:00,
2013-12-13 02:57:00,15.4,4.7,30.07,South,189,0.0,0.0,62,0.00,,CLR,0.00,VWS V14.01,2013-12-13 07:57:00,
2013-12-13 03:02:00,15.2,4.5,30.07,South,186,0.0,0.0,62,0.00,,CLR,0.00,VWS V14.01,2013-12-13 08:02:00,
2013-12-13 03:12:00,14.8,4.8,30.07,South,189,0.0,0.0,64,0.00,,CLR,0.00,VWS V14.01,2013-12-13 08:12:00,
2013-12-13 03:17:00,14.6,4.7,30.07,South,189,0.0,0.0,64,0.00,,CLR,0.00,VWS V14.01,2013-12-13 08:17:00,
2013-12-13 03:23:00,14.6,4.7,30.07,South,189,0.0,0.0,64,0.00,,CLR,0.00,VWS V14.01,2013-12-13 08:23:00,
2013-12-13 03:32:00,14.4,4.5,30.07,South,188,0.0,0.0,64,0.00,,CLR,0.00,VWS V14.01,2013-12-13 08:32:00,
2013-12-13 03:37:00,14.3,4.4,30.07,South,189,0.0,0.0,64,0.00,,CLR,0.00,VWS V14.01,2013-12-13 08:37:00,
2013-12-13 03:42:00,14.4,4.8,30.07,South,188,0.0,0.0,65,0.00,,CLR,0.00,VWS V14.01,2013-12-13 08:42:00,
2013-12-13 03:47:00,14.4,4.8,30.06,South,185,0.0,0.0,65,0.00,,CLR,0.00,VWS V14.01,2013-12-13 08:47:00,
2013-12-13 03:52:00,14.4,4.8,30.06,South,179,0.0,0.0,65,0.00,,CLR,0.00,VWS V14.01,2013-12-13 08:52:00,
2013-12-13 03:57:00,14.6,5.0,30.06,South,181,0.0,0.0,65,0.00,,CLR,0.00,VWS V14.01,2013-12-13 08:57:00,
2013-12-13 04:02:00,14.4,4.8,30.05,South,181,0.0,0.0,65,0.00,,CLR,0.00,VWS V14.01,2013-12-13 09:02:00,
2013-12-13 04:07:00,14.4,4.8,30.05,South,182,0.0,0.0,65,0.00,,CLR,0.00,VWS V14.01,2013-12-13 09:07:00,
2013-12-13 04:12:00,14.4,5.1,30.05,South,181,0.0,0.0,66,0.00,,CLR,0.00,VWS V14.01,2013-12-13 09:12:00,
2013-12-13 04:17:00,14.4,5.1,30.05,South,181,0.0,0.0,66,0.00,,CLR,0.00,VWS V14.01,2013-12-13 09:17:00,
2013-12-13 04:22:00,14.4,5.1,30.05,South,181,0.0,0.0,66,0.00,,FEW090,0.00,VWS V14.01,2013-12-13 09:22:00,
2013-12-13 04:27:00,14.6,5.7,30.05,South,181,0.0,0.0,67,0.00,,FEW090,0.00,VWS V14.01,2013-12-13 09:27:00,
2013-12-13 04:32:00,14.6,5.7,30.05,South,182,0.0,0.0,67,0.00,,FEW090,0.00,VWS V14.01,2013-12-13 09:32:00,
2013-12-13 04:37:00,14.6,5.7,30.05,South,182,0.0,0.0,67,0.00,,FEW090,0.00,VWS V14.01,2013-12-13 09:37:00,
2013-12-13 04:43:00,14.8,5.8,30.05,South,182,0.0,0.0,67,0.00,,FEW090,0.00,VWS V14.01,2013-12-13 09:43:00,
2013-12-13 04:48:00,14.8,5.8,30.05,South,182,0.0,0.0,67,0.00,,FEW090,0.00,VWS V14.01,2013-12-13 09:48:00,
2013-12-13 04:57:00,14.8,6.2,30.05,South,184,0.0,0.0,68,0.00,,FEW090,0.00,VWS V14.01,2013-12-13 09:57:00,
2013-12-13 05:02:00,14.9,6.3,30.04,SSW,202,0.0,0.0,68,0.00,,FEW090,0.00,VWS V14.01,2013-12-13 10:02:00,
2013-12-13 05:07:00,14.9,6.3,30.04,SSW,200,0.0,0.0,68,0.00,,FEW090,0.00,VWS V14.01,2013-12-13 10:07:00,
2013-12-13 05:17:00,14.9,6.3,30.04,SSW,200,0.0,0.0,68,0.00,,FEW090,0.00,VWS V14.01,2013-12-13 10:17:00,
2013-12-13 05:22:00,14.8,6.2,30.04,SSW,200,0.0,0.0,68,0.00,,FEW090,0.00,VWS V14.01,2013-12-13 10:22:00,
2013-12-13 05:32:00,14.9,6.3,30.04,SSW,200,0.0,0.0,68,0.00,,FEW090,0.00,VWS V14.01,2013-12-13 10:32:00,
2013-12-13 05:37:00,15.1,6.5,30.04,SSW,200,0.0,0.0,68,0.00,,FEW090,0.00,VWS V14.01,2013-12-13 10:37:00,
2013-12-13 05:47:00,15.4,6.7,30.04,SSW,199,0.0,0.0,68,0.00,,FEW090,0.00,VWS V14.01,2013-12-13 10:47:00,
2013-12-13 05:57:00,15.7,7.0,30.04,SSW,199,0.0,0.0,68,0.00,,FEW090,0.00,VWS V14.01,2013-12-13 10:57:00,
2013-12-13 06:02:00,15.7,7.0,30.04,SSW,195,0.0,0.0,68,0.00,,FEW090,0.00,VWS V14.01,2013-12-13 11:02:00,
2013-12-13 06:07:00,15.9,7.2,30.04,SSW,195,0.0,0.0,68,0.00,,FEW090,0.00,VWS V14.01,2013-12-13 11:07:00,
2013-12-13 06:12:00,15.7,7.0,30.04,SSW,195,0.0,0.0,68,0.00,,FEW090,0.00,VWS V14.01,2013-12-13 11:12:00,
2013-12-13 06:17:00,15.7,7.0,30.04,SSW,195,0.0,0.0,68,0.00,,FEW090,0.00,VWS V14.01,2013-12-13 11:17:00,
2013-12-13 06:22:00,15.7,7.0,30.04,SSW,195,0.0,0.0,68,0.00,,CLR,0.00,VWS V14.01,2013-12-13 11:22:00,
2013-12-13 06:27:00,15.7,7.0,30.04,SSW,196,0.0,0.0,68,0.00,,CLR,0.00,VWS V14.01,2013-12-13 11:27:00,
2013-12-13 06:32:00,15.9,7.2,30.05,SSW,196,0.0,0.0,68,0.00,,CLR,0.00,VWS V14.01,2013-12-13 11:32:00,
2013-12-13 06:37:00,15.9,7.2,30.05,SSW,196,0.0,0.0,68,0.00,,CLR,0.00,VWS V14.01,2013-12-13 11:37:00,
2013-12-13 06:42:00,16.1,7.4,30.05,SSW,196,0.0,0.0,68,0.00,,CLR,0.00,VWS V14.01,2013-12-13 11:42:00,
2013-12-13 06:48:00,16.1,7.4,30.06,SSW,196,0.0,0.0,68,0.00,,CLR,0.00,VWS V14.01,2013-12-13 11:48:00,
2013-12-13 06:57:00,15.9,6.9,30.06,South,184,0.0,0.0,67,0.00,,CLR,0.00,VWS V14.01,2013-12-13 11:57:00,
2013-12-13 07:03:00,15.7,7.0,30.05,South,184,0.0,0.0,68,0.00,,CLR,0.00,VWS V14.01,2013-12-13 12:03:00,
2013-12-13 07:08:00,15.6,6.9,30.05,South,184,0.0,0.0,68,0.00,,CLR,0.00,VWS V14.01,2013-12-13 12:08:00,
2013-12-13 07:13:00,15.4,6.7,30.05,South,185,0.0,0.0,68,0.00,,CLR,0.00,VWS V14.01,2013-12-13 12:13:00,
2013-12-13 07:18:00,15.4,6.7,30.06,South,184,0.0,0.0,68,0.00,,CLR,0.00,VWS V14.01,2013-12-13 12:18:00,
2013-12-13 07:22:00,15.6,6.9,30.06,South,186,0.0,0.0,68,0.00,,CLR,0.00,VWS V14.01,2013-12-13 12:22:00,
2013-12-13 07:27:00,15.7,7.0,30.06,South,186,0.0,0.0,68,0.00,,CLR,0.00,VWS V14.01,2013-12-13 12:27:00,
2013-12-13 07:32:00,15.9,7.2,30.06,South,186,0.0,0.0,68,0.00,,CLR,0.00,VWS V14.01,2013-12-13 12:32:00,
2013-12-13 07:37:00,15.9,7.2,30.06,South,186,0.0,0.0,68,0.00,,CLR,0.00,VWS V14.01,2013-12-13 12:37:00,
2013-12-13 07:47:00,15.9,7.2,30.06,South,186,0.0,0.0,68,0.00,,CLR,0.00,VWS V14.01,2013-12-13 12:47:00,
2013-12-13 07:52:00,16.1,7.4,30.06,South,186,0.0,0.0,68,0.00,,CLR,0.00,VWS V14.01,2013-12-13 12:52:00,
2013-12-13 07:57:00,16.1,7.4,30.06,South,186,0.0,0.0,68,0.00,,CLR,0.00,VWS V14.01,2013-12-13 12:57:00,
2013-12-13 08:02:00,16.2,7.5,30.06,South,186,0.0,0.0,68,0.00,,CLR,0.00,VWS V14.01,2013-12-13 13:02:00,
2013-12-13 08:07:00,16.1,7.4,30.06,South,186,0.0,0.0,68,0.00,,CLR,0.00,VWS V14.01,2013-12-13 13:07:00,
2013-12-13 08:12:00,16.1,7.4,30.06,South,186,0.0,0.0,68,0.00,,CLR,0.00,VWS V14.01,2013-12-13 13:12:00,
2013-12-13 08:22:00,15.9,7.5,30.07,South,186,0.0,0.0,69,0.00,,OVC080,0.00,VWS V14.01,2013-12-13 13:22:00,
2013-12-13 08:27:00,16.1,7.7,30.07,South,186,0.0,0.0,69,0.00,,OVC080,0.00,VWS V14.01,2013-12-13 13:27:00,
2013-12-13 08:32:00,16.4,8.0,30.07,South,186,0.0,0.0,69,0.00,,OVC080,0.00,VWS V14.01,2013-12-13 13:32:00,
2013-12-13 08:37:00,16.7,8.3,30.07,South,186,0.0,0.0,69,0.00,,OVC080,0.00,VWS V14.01,2013-12-13 13:37:00,
2013-12-13 08:42:00,17.0,8.6,30.07,South,186,0.0,0.0,69,0.00,,OVC080,0.00,VWS V14.01,2013-12-13 13:42:00,
2013-12-13 08:47:00,17.2,8.5,30.07,South,186,0.0,0.0,68,0.00,,OVC080,0.00,VWS V14.01,2013-12-13 13:47:00,
2013-12-13 08:52:00,17.2,8.1,30.07,South,186,0.0,0.0,67,0.00,,OVC080,0.00,VWS V14.01,2013-12-13 13:52:00,
2013-12-13 08:57:00,17.3,8.2,30.07,South,186,0.0,0.0,67,0.00,,OVC080,0.00,VWS V14.01,2013-12-13 13:57:00,
2013-12-13 09:03:00,17.7,8.6,30.07,South,186,0.0,0.0,67,0.00,,OVC080,0.00,VWS V14.01,2013-12-13 14:03:00,
2013-12-13 09:12:00,18.4,9.0,30.07,South,186,0.0,0.0,66,0.00,,OVC080,0.00,VWS V14.01,2013-12-13 14:12:00,
2013-12-13 09:18:00,18.9,9.1,30.07,South,186,0.0,0.0,65,0.00,,OVC080,0.00,VWS V14.01,2013-12-13 14:18:00,
2013-12-13 09:23:00,19.4,9.2,30.07,South,186,0.0,0.0,64,0.00,,OVC080,0.00,VWS V14.01,2013-12-13 14:23:00,
2013-12-13 09:32:00,19.7,9.2,30.07,South,186,0.0,0.0,63,0.00,,OVC080,0.00,VWS V14.01,2013-12-13 14:32:00,
2013-12-13 09:38:00,20.2,9.6,30.07,South,184,0.0,0.0,63,0.00,,OVC080,0.00,VWS V14.01,2013-12-13 14:38:00,
2013-12-13 09:43:00,20.3,9.4,30.07,South,184,0.0,0.0,62,0.00,,OVC080,0.00,VWS V14.01,2013-12-13 14:43:00,
2013-12-13 09:48:00,20.5,9.9,30.07,SSW,195,0.0,0.0,63,0.00,,OVC080,0.00,VWS V14.01,2013-12-13 14:48:00,
2013-12-13 09:52:00,20.3,9.4,30.07,SSW,198,0.0,0.0,62,0.00,,OVC080,0.00,VWS V14.01,2013-12-13 14:52:00,
2013-12-13 09:58:00,20.8,10.2,30.07,South,176,0.0,0.0,63,0.00,,OVC080,0.00,VWS V14.01,2013-12-13 14:58:00,
2013-12-13 10:07:00,20.5,9.9,30.07,SSW,208,0.0,0.0,63,0.00,,OVC080,0.00,VWS V14.01,2013-12-13 15:07:00,
2013-12-13 10:12:00,20.5,9.9,30.07,South,188,0.0,0.0,63,0.00,,OVC080,0.00,VWS V14.01,2013-12-13 15:12:00,
2013-12-13 10:17:00,20.8,9.9,30.07,South,184,0.0,0.0,62,0.00,,OVC080,0.00,VWS V14.01,2013-12-13 15:17:00,
2013-12-13 10:23:00,21.0,10.0,30.07,South,186,0.0,0.0,62,0.00,,OVC080,0.00,VWS V14.01,2013-12-13 15:23:00,
2013-12-13 10:32:00,21.9,10.9,30.07,South,179,0.0,0.0,62,0.00,,OVC080,0.00,VWS V14.01,2013-12-13 15:32:00,
2013-12-13 10:37:00,22.7,11.3,30.07,South,179,0.0,0.0,61,0.00,,OVC080,0.00,VWS V14.01,2013-12-13 15:37:00,
2013-12-13 10:42:00,22.7,11.6,30.07,South,178,0.0,0.0,62,0.00,,OVC080,0.00,VWS V14.01,2013-12-13 15:42:00,
2013-12-13 10:47:00,23.3,12.2,30.07,South,178,0.0,0.0,62,0.00,,OVC080,0.00,VWS V14.01,2013-12-13 15:47:00,
2013-12-13 10:52:00,23.9,12.4,30.07,South,178,0.0,0.0,61,0.00,,OVC080,0.00,VWS V14.01,2013-12-13 15:52:00,
2013-12-13 10:57:00,24.1,12.2,30.07,South,179,0.0,0.0,60,0.00,,OVC080,0.00,VWS V14.01,2013-12-13 15:57:00,
2013-12-13 11:02:00,23.9,12.1,30.07,South,179,0.0,0.0,60,0.00,,OVC080,0.00,VWS V14.01,2013-12-13 16:02:00,
2013-12-13 11:08:00,23.9,12.8,30.07,SSE,160,0.0,0.0,62,0.00,,OVC080,0.00,VWS V14.01,2013-12-13 16:08:00,
2013-12-13 11:18:00,25.3,13.8,30.06,SSE,152,0.0,0.0,61,0.00,,OVC080,0.00,VWS V14.01,2013-12-13 16:18:00,
2013-12-13 11:28:00,24.5,13.0,30.06,SSE,154,0.0,0.0,61,0.00,,CLR,0.00,VWS V14.01,2013-12-13 16:28:00,
2013-12-13 11:37:00,24.1,13.0,30.05,SSE,165,0.0,0.0,62,0.00,,CLR,0.00,VWS V14.01,2013-12-13 16:37:00,
2013-12-13 11:43:00,24.4,13.6,30.05,SSE,165,0.0,0.0,63,0.00,,CLR,0.00,VWS V14.01,2013-12-13 16:43:00,
2013-12-13 11:48:00,24.5,13.4,30.05,South,188,0.0,0.0,62,0.00,,CLR,0.00,VWS V14.01,2013-12-13 16:48:00,
2013-12-13 11:58:00,26.3,15.4,30.05,South,181,0.0,0.0,63,0.00,,CLR,0.00,VWS V14.01,2013-12-13 16:58:00,
2013-12-13 12:03:00,27.6,16.3,30.03,South,176,0.0,0.0,62,0.00,,CLR,0.00,VWS V14.01,2013-12-13 17:03:00,
2013-12-13 12:08:00,27.9,15.1,30.03,South,178,0.0,0.0,58,0.00,,CLR,0.00,VWS V14.01,2013-12-13 17:08:00,
2013-12-13 12:13:00,28.1,15.6,30.03,South,174,0.0,0.0,59,0.00,,CLR,0.00,VWS V14.01,2013-12-13 17:13:00,
2013-12-13 12:18:00,28.2,15.7,30.03,SSE,161,0.0,0.0,59,0.00,,CLR,0.00,VWS V14.01,2013-12-13 17:18:00,
2013-12-13 12:23:00,27.8,15.7,30.03,South,176,0.0,0.0,60,0.00,,CLR,0.00,VWS V14.01,2013-12-13 17:23:00,
2013-12-13 12:32:00,28.1,16.0,30.03,South,191,0.0,0.0,60,0.00,,CLR,0.00,VWS V14.01,2013-12-13 17:32:00,
2013-12-13 12:37:00,27.3,15.3,30.03,SSW,209,0.0,0.0,60,0.00,,CLR,0.00,VWS V14.01,2013-12-13 17:37:00,
2013-12-13 12:42:00,27.6,16.3,30.03,SSW,209,0.0,0.0,62,0.00,,CLR,0.00,VWS V14.01,2013-12-13 17:42:00,
2013-12-13 12:47:00,28.2,16.9,30.01,South,178,0.0,0.0,62,0.00,,CLR,0.00,VWS V14.01,2013-12-13 17:47:00,
2013-12-13 12:52:00,28.7,17.0,30.01,South,176,0.0,0.0,61,0.00,,CLR,0.00,VWS V14.01,2013-12-13 17:52:00,
2013-12-13 12:57:00,29.3,17.5,30.01,South,184,0.0,0.0,61,0.00,,CLR,0.00,VWS V14.01,2013-12-13 17:57:00,
2013-12-13 13:03:00,29.3,17.1,30.00,South,185,0.0,0.0,60,0.00,,CLR,0.00,VWS V14.01,2013-12-13 18:03:00,
2013-12-13 13:12:00,30.0,17.8,30.00,South,189,0.0,0.0,60,0.00,,CLR,0.00,VWS V14.01,2013-12-13 18:12:00,
2013-12-13 13:18:00,31.0,18.0,30.00,SSE,152,0.0,0.0,58,0.00,,CLR,0.00,VWS V14.01,2013-12-13 18:18:00,
2013-12-13 13:23:00,31.8,17.9,30.00,SSE,152,0.0,0.0,56,0.00,,CLR,0.00,VWS V14.01,2013-12-13 18:23:00,
2013-12-13 13:28:00,32.9,18.5,30.00,SSE,152,0.0,0.0,55,0.00,,CLR,0.00,VWS V14.01,2013-12-13 18:28:00,
2013-12-13 13:37:00,33.1,18.7,29.98,ESE,113,0.0,0.0,55,0.00,,CLR,0.00,VWS V14.01,2013-12-13 18:37:00,
2013-12-13 13:43:00,33.4,17.7,29.98,ESE,114,0.0,0.0,52,0.00,,CLR,0.00,VWS V14.01,2013-12-13 18:43:00,
2013-12-13 13:53:00,33.5,18.2,29.98,ESE,116,0.0,0.0,53,0.00,,CLR,0.00,VWS V14.01,2013-12-13 18:53:00,
2013-12-13 13:58:00,32.9,17.2,29.98,ESE,120,0.0,0.0,52,0.00,,CLR,0.00,VWS V14.01,2013-12-13 18:58:00,
2013-12-13 14:03:00,32.7,17.5,29.98,ESE,116,0.0,0.0,53,0.00,,CLR,0.00,VWS V14.01,2013-12-13 19:03:00,
2013-12-13 14:08:00,33.1,17.8,29.98,ESE,112,0.0,0.0,53,0.00,,CLR,0.00,VWS V14.01,2013-12-13 19:08:00,
2013-12-13 14:13:00,33.2,17.9,29.98,ESE,112,0.0,0.0,53,0.01,,CLR,0.01,VWS V14.01,2013-12-13 19:13:00,
2013-12-13 14:18:00,33.5,17.8,29.98,ESE,110,0.0,0.0,52,0.01,,CLR,0.01,VWS V14.01,2013-12-13 19:18:00,
2013-12-13 14:23:00,33.5,17.8,29.98,ESE,112,0.0,0.0,52,0.01,,CLR,0.01,VWS V14.01,2013-12-13 19:23:00,
2013-12-13 14:33:00,32.7,17.5,29.98,ESE,112,0.0,0.0,53,0.01,,CLR,0.01,VWS V14.01,2013-12-13 19:33:00,
2013-12-13 14:38:00,32.5,17.3,29.98,ESE,112,0.0,0.0,53,0.01,,CLR,0.01,VWS V14.01,2013-12-13 19:38:00,
2013-12-13 14:43:00,31.9,17.2,29.98,ESE,112,0.0,0.0,54,0.01,,CLR,0.01,VWS V14.01,2013-12-13 19:43:00,
2013-12-13 14:48:00,31.9,17.6,29.98,ESE,112,0.0,0.0,55,0.01,,CLR,0.01,VWS V14.01,2013-12-13 19:48:00,
2013-12-13 14:52:00,32.4,18.0,29.98,ESE,112,0.0,0.0,55,0.01,,CLR,0.01,VWS V14.01,2013-12-13 19:52:00,
2013-12-13 14:57:00,32.5,18.1,29.98,ESE,112,0.0,0.0,55,0.01,,CLR,0.01,VWS V14.01,2013-12-13 19:57:00,
2013-12-13 15:02:00,32.4,18.0,29.99,ESE,112,0.0,0.0,55,0.01,,CLR,0.01,VWS V14.01,2013-12-13 20:02:00,
2013-12-13 15:07:00,32.1,18.2,29.99,ESE,112,0.0,0.0,56,0.01,,CLR,0.01,VWS V14.01,2013-12-13 20:07:00,
2013-12-13 15:12:00,31.9,18.4,29.99,ESE,112,0.0,0.0,57,0.01,,CLR,0.01,VWS V14.01,2013-12-13 20:12:00,
2013-12-13 15:17:00,31.9,18.8,29.98,ESE,109,0.0,0.0,58,0.00,,CLR,0.01,VWS V14.01,2013-12-13 20:17:00,
2013-12-13 15:22:00,31.9,19.2,29.98,ESE,107,0.0,0.0,59,0.00,,CLR,0.01,VWS V14.01,2013-12-13 20:22:00,
2013-12-13 15:27:00,31.9,19.6,29.98,ESE,107,0.0,0.0,60,0.00,,CLR,0.01,VWS V14.01,2013-12-13 20:27:00,
2013-12-13 15:32:00,32.1,19.8,29.98,ESE,106,0.0,0.0,60,0.00,,CLR,0.01,VWS V14.01,2013-12-13 20:32:00,
2013-12-13 15:38:00,32.1,20.2,29.98,ESE,104,0.0,0.0,61,0.00,,CLR,0.01,VWS V14.01,2013-12-13 20:38:00,
2013-12-13 15:48:00,31.9,19.6,29.97,ESE,102,0.0,0.0,60,0.00,,CLR,0.01,VWS V14.01,2013-12-13 20:48:00,
2013-12-13 15:57:00,31.9,20.0,29.97,ESE,102,0.0,0.0,61,0.00,,CLR,0.01,VWS V14.01,2013-12-13 20:57:00,
2013-12-13 16:02:00,31.9,20.0,29.96,East,95,0.0,0.0,61,0.00,,CLR,0.01,VWS V14.01,2013-12-13 21:02:00,
2013-12-13 16:07:00,31.6,20.1,29.96,East,93,0.0,0.0,62,0.00,,CLR,0.01,VWS V14.01,2013-12-13 21:07:00,
2013-12-13 16:12:00,31.5,20.0,29.96,East,85,0.0,0.0,62,0.00,,CLR,0.01,VWS V14.01,2013-12-13 21:12:00,
2013-12-13 16:18:00,31.3,19.8,29.96,East,85,0.0,0.0,62,0.00,,CLR,0.01,VWS V14.01,2013-12-13 21:18:00,
2013-12-13 16:23:00,31.3,20.2,29.96,East,85,0.0,0.0,63,0.00,,CLR,0.01,VWS V14.01,2013-12-13 21:23:00,
2013-12-13 16:32:00,31.0,20.3,29.96,East,86,0.0,0.0,64,0.00,,CLR,0.01,VWS V14.01,2013-12-13 21:32:00,
2013-12-13 16:38:00,31.0,20.6,29.96,East,86,0.0,0.0,65,0.00,,CLR,0.01,VWS V14.01,2013-12-13 21:38:00,
2013-12-13 16:43:00,30.9,20.5,29.96,East,86,0.0,0.0,65,0.00,,CLR,0.01,VWS V14.01,2013-12-13 21:43:00,
2013-12-13 16:52:00,30.7,20.3,29.95,East,89,0.0,0.0,65,0.00,,CLR,0.01,VWS V14.01,2013-12-13 21:52:00,
2013-12-13 16:58:00,30.6,20.6,29.95,East,88,0.0,0.0,66,0.00,,CLR,0.01,VWS V14.01,2013-12-13 21:58:00,
2013-12-13 17:03:00,30.7,20.7,29.95,East,86,0.0,0.0,66,0.00,,CLR,0.01,VWS V14.01,2013-12-13 22:03:00,
2013-12-13 17:08:00,30.7,21.1,29.95,East,86,0.0,0.0,67,0.00,,CLR,0.01,VWS V14.01,2013-12-13 22:08:00,
2013-12-13 17:13:00,30.6,21.0,29.95,East,85,0.0,0.0,67,0.00,,CLR,0.01,VWS V14.01,2013-12-13 22:13:00,
2013-12-13 17:18:00,30.3,21.0,29.96,East,85,0.0,0.0,68,0.00,,CLR,0.01,VWS V14.01,2013-12-13 22:18:00,
2013-12-13 17:27:00,29.8,20.9,29.96,East,85,0.0,0.0,69,0.00,,CLR,0.01,VWS V14.01,2013-12-13 22:27:00,
2013-12-13 17:33:00,29.8,20.9,29.97,East,86,0.0,0.0,69,0.00,,CLR,0.01,VWS V14.01,2013-12-13 22:33:00,
2013-12-13 17:38:00,29.7,20.8,29.97,East,86,0.0,0.0,69,0.00,,CLR,0.01,VWS V14.01,2013-12-13 22:38:00,
2013-12-13 17:47:00,29.5,20.6,29.98,East,86,0.0,0.0,69,0.00,,CLR,0.01,VWS V14.01,2013-12-13 22:47:00,
2013-12-13 17:52:00,29.5,20.6,29.98,East,86,0.0,0.0,69,0.00,,CLR,0.01,VWS V14.01,2013-12-13 22:52:00,
2013-12-13 17:58:00,29.7,20.8,29.98,East,86,0.0,0.0,69,0.00,,CLR,0.01,VWS V14.01,2013-12-13 22:58:00,
2013-12-13 18:07:00,29.8,20.9,29.97,East,79,0.0,0.0,69,0.00,,CLR,0.01,VWS V14.01,2013-12-13 23:07:00,
2013-12-13 18:12:00,30.0,21.1,29.97,East,80,0.0,0.0,69,0.00,,CLR,0.01,VWS V14.01,2013-12-13 23:12:00,
2013-12-13 18:18:00,30.0,21.1,29.98,East,80,0.0,0.0,69,0.00,,CLR,0.01,VWS V14.01,2013-12-13 23:18:00,
2013-12-13 18:27:00,30.0,21.4,29.98,East,80,0.0,0.0,70,0.00,,CLR,0.01,VWS V14.01,2013-12-13 23:27:00,
2013-12-13 18:32:00,29.8,21.6,29.99,East,80,0.0,0.0,71,0.00,,CLR,0.01,VWS V14.01,2013-12-13 23:32:00,
2013-12-13 18:38:00,30.0,21.8,29.99,East,80,0.0,0.0,71,0.00,,CLR,0.01,VWS V14.01,2013-12-13 23:38:00,
2013-12-13 18:47:00,29.8,21.6,29.99,East,85,0.0,0.0,71,0.00,,CLR,0.01,VWS V14.01,2013-12-13 23:47:00,
2013-12-13 18:52:00,29.8,21.9,29.99,East,89,0.0,0.0,72,0.00,,CLR,0.01,VWS V14.01,2013-12-13 23:52:00,
2013-12-13 18:58:00,29.8,21.9,29.99,East,89,0.0,0.0,72,0.00,,CLR,0.01,VWS V14.01,2013-12-13 23:58:00,
2013-12-13 19:07:00,30.0,22.1,29.99,East,90,0.0,0.0,72,0.00,,CLR,0.01,VWS V14.01,2013-12-14 00:07:00,
2013-12-13 19:13:00,30.1,21.9,29.99,East,93,0.0,0.0,71,0.00,,CLR,0.01,VWS V14.01,2013-12-14 00:13:00,
2013-12-13 19:18:00,30.1,21.9,30.00,East,95,0.0,0.0,71,0.00,,CLR,0.01,VWS V14.01,2013-12-14 00:18:00,
2013-12-13 19:23:00,30.3,22.0,30.00,East,96,0.0,0.0,71,0.00,,CLR,0.01,VWS V14.01,2013-12-14 00:23:00,
2013-12-13 19:28:00,30.3,21.7,30.00,East,96,0.0,0.0,70,0.00,,CLR,0.01,VWS V14.01,2013-12-14 00:28:00,
2013-12-13 19:33:00,30.4,21.5,30.00,ESE,102,0.0,0.0,69,0.00,,CLR,0.01,VWS V14.01,2013-12-14 00:33:00,
2013-12-13 19:38:00,30.6,21.6,30.00,ESE,107,0.0,0.0,69,0.00,,CLR,0.01,VWS V14.01,2013-12-14 00:38:00,
2013-12-13 19:48:00,30.6,21.3,30.00,ESE,110,0.0,0.0,68,0.00,,CLR,0.01,VWS V14.01,2013-12-14 00:48:00,
2013-12-13 19:52:00,30.6,21.3,30.00,ESE,110,0.0,0.0,68,0.00,,CLR,0.01,VWS V14.01,2013-12-14 00:52:00,
2013-12-13 19:57:00,30.4,21.1,30.00,ESE,104,0.0,0.0,68,0.00,,CLR,0.01,VWS V14.01,2013-12-14 00:57:00,
2013-12-13 20:02:00,30.4,21.1,29.99,ESE,109,0.0,0.0,68,0.00,,CLR,0.01,VWS V14.01,2013-12-14 01:02:00,
2013-12-13 20:07:00,30.4,21.1,29.99,ESE,113,0.0,0.0,68,0.00,,CLR,0.01,VWS V14.01,2013-12-14 01:07:00,
2013-12-13 20:12:00,30.4,21.1,29.99,ESE,110,0.0,0.0,68,0.00,,CLR,0.01,VWS V14.01,2013-12-14 01:12:00,
2013-12-13 20:18:00,30.3,21.4,29.99,ESE,106,0.0,0.0,69,0.00,,CLR,0.01,VWS V14.01,2013-12-14 01:18:00,
2013-12-13 20:23:00,30.3,21.4,29.99,ESE,116,0.0,0.0,69,0.00,,OVC090,0.01,VWS V14.01,2013-12-14 01:23:00,
2013-12-13 20:32:00,30.3,21.4,29.99,SE,134,0.0,0.0,69,0.00,,OVC090,0.01,VWS V14.01,2013-12-14 01:32:00,
2013-12-13 20:37:00,30.3,21.4,29.99,ESE,117,0.0,0.0,69,0.00,,OVC090,0.01,VWS V14.01,2013-12-14 01:37:00,
2013-12-13 20:42:00,30.3,21.4,29.99,ESE,107,0.0,0.0,69,0.00,,OVC090,0.01,VWS V14.01,2013-12-14 01:42:00,
2013-12-13 20:47:00,30.3,21.4,29.99,ESE,121,0.0,0.0,69,0.00,,OVC090,0.01,VWS V14.01,2013-12-14 01:47:00,
2013-12-13 20:53:00,30.3,21.4,29.99,ESE,116,0.0,0.0,69,0.00,,OVC090,0.01,VWS V14.01,2013-12-14 01:53:00,
2013-12-13 20:58:00,30.3,21.4,29.99,ESE,110,0.0,0.0,69,0.00,,OVC090,0.01,VWS V14.01,2013-12-14 01:58:00,
2013-12-13 21:03:00,30.3,21.7,29.98,ESE,119,0.0,0.0,70,0.00,,OVC090,0.01,VWS V14.01,2013-12-14 02:03:00,
2013-12-13 21:12:00,30.3,21.4,29.98,ESE,120,0.0,0.0,69,0.00,,OVC090,0.01,VWS V14.01,2013-12-14 02:12:00,
2013-12-13 21:23:00,30.3,21.4,29.98,ESE,120,0.0,0.0,69,0.00,,OVC090,0.01,VWS V14.01,2013-12-14 02:23:00,
2013-12-13 21:32:00,30.1,21.9,29.98,ESE,120,0.0,0.0,71,0.00,,OVC090,0.01,VWS V14.01,2013-12-14 02:32:00,
2013-12-13 21:37:00,30.0,22.1,29.98,ESE,120,0.0,0.0,72,0.00,,OVC090,0.01,VWS V14.01,2013-12-14 02:37:00,
2013-12-13 21:42:00,29.5,22.2,29.98,ESE,120,0.0,0.0,74,0.00,,OVC090,0.01,VWS V14.01,2013-12-14 02:42:00,
2013-12-13 21:48:00,29.4,22.8,29.98,ESE,120,0.0,0.0,76,0.00,,OVC090,0.01,VWS V14.01,2013-12-14 02:48:00,
2013-12-13 21:57:00,28.8,23.1,29.98,ESE,119,0.0,0.0,79,0.00,,OVC090,0.01,VWS V14.01,2013-12-14 02:57:00,
2013-12-13 22:03:00,28.7,23.3,29.98,ESE,117,0.0,0.0,80,0.00,,OVC090,0.01,VWS V14.01,2013-12-14 03:03:00,
2013-12-13 22:08:00,28.4,23.3,29.98,ESE,116,0.0,0.0,81,0.00,,OVC090,0.01,VWS V14.01,2013-12-14 03:08:00,
2013-12-13 22:13:00,28.2,23.4,29.98,ESE,114,0.0,0.0,82,0.00,,OVC090,0.01,VWS V14.01,2013-12-14 03:13:00,
2013-12-13 22:18:00,28.1,23.6,29.97,ESE,114,0.0,0.0,83,0.00,,OVC090,0.01,VWS V14.01,2013-12-14 03:18:00,
2013-12-13 22:22:00,27.9,23.7,29.97,ESE,119,0.0,0.0,84,0.00,,OVC090,0.01,VWS V14.01,2013-12-14 03:22:00,
2013-12-13 22:27:00,27.9,23.7,29.97,ESE,119,0.0,0.0,84,0.00,,OVC090,0.01,VWS V14.01,2013-12-14 03:27:00,
2013-12-13 22:32:00,27.9,24.0,29.97,ESE,119,0.0,0.0,85,0.00,,OVC090,0.01,VWS V14.01,2013-12-14 03:32:00,
2013-12-13 22:37:00,27.9,24.0,29.97,ESE,119,0.0,0.0,85,0.00,,OVC090,0.01,VWS V14.01,2013-12-14 03:37:00,
2013-12-13 22:42:00,28.1,24.5,29.97,ESE,119,0.0,0.0,86,0.00,,OVC090,0.01,VWS V14.01,2013-12-14 03:42:00,
2013-12-13 22:47:00,27.9,24.3,29.97,ESE,119,0.0,0.0,86,0.00,,OVC090,0.01,VWS V14.01,2013-12-14 03:47:00,
2013-12-13 22:52:00,27.9,24.3,29.97,ESE,119,0.0,0.0,86,0.00,,OVC090,0.01,VWS V14.01,2013-12-14 03:52:00,
2013-12-13 22:57:00,27.9,24.3,29.97,ESE,119,0.0,0.0,86,0.00,,OVC090,0.01,VWS V14.01,2013-12-14 03:57:00,
2013-12-13 23:03:00,27.9,24.3,29.97,ESE,119,0.0,0.0,86,0.00,,OVC090,0.01,VWS V14.01,2013-12-14 04:03:00,
2013-12-13 23:08:00,27.9,24.5,29.97,ESE,119,0.0,0.0,87,0.00,,OVC090,0.00,VWS V14.01,2013-12-14 04:08:00,
2013-12-13 23:13:00,27.9,24.5,29.97,ESE,119,0.0,0.0,87,0.00,,OVC090,0.00,VWS V14.01,2013-12-14 04:13:00,
2013-12-13 23:22:00,27.9,24.5,29.97,ESE,119,0.0,0.0,87,0.00,,,0.00,VWS V14.01,2013-12-14 04:22:00,
2013-12-13 23:27:00,27.9,24.5,29.97,ESE,119,0.0,0.0,87,0.00,,,0.00,VWS V14.01,2013-12-14 04:27:00,
2013-12-13 23:32:00,28.1,25.0,29.97,ESE,119,0.0,0.0,88,0.00,,,0.00,VWS V14.01,2013-12-14 04:32:00,
2013-12-13 23:37:00,28.1,25.0,29.97,ESE,117,0.0,0.0,88,0.00,,,0.00,VWS V14.01,2013-12-14 04:37:00,
2013-12-13 23:42:00,27.9,24.8,29.97,ESE,117,0.0,0.0,88,0.00,,,0.00,VWS V14.01,2013-12-14 04:42:00,
2013-12-13 23:47:00,27.9,24.8,29.97,ESE,117,0.0,0.0,88,0.00,,,0.00,VWS V14.01,2013-12-14 04:47:00,
2013-12-13 23:57:00,27.9,24.8,29.97,ESE,114,0.0,0.0,88,0.00,,,0.00,VWS V14.01,2013-12-14 04:57:00,